Simultaneous Nadir Overpasses (SNOs) Predictions

Prediction of SNOs between NOAA-19 and NPP Satellite Orbit:

Table of predicted SNOs for the next 14.0 days since TLE Epoch: 6/18/2021
Index Date (NOAA-19) Time (NOAA-19) Lat,Lon (NOAA-19) SZA (NOAA-19 ) Date (NPP) Time (NPP) Lat,Lon (NPP) SZA (NPP ) Distance(km) Time Diff (sec)
1 06/20/2021 19:53:09 78.13,-145.02 56.08 06/20/2021 19:54:22 78.17,-144.24 56.00 18.34 73
2 06/20/2021 20:44:05 -78.22, 22.78 123.90 06/20/2021 20:45:08 -78.22, 22.76 123.92 0.95 63
3 06/20/2021 21:35:07 78.21,-170.00 56.10 06/20/2021 21:35:53 78.21,-169.84 56.06 3.62 46
4 06/20/2021 22:26:05 -78.23, -2.64 123.90 06/20/2021 22:26:38 -78.23, -2.63 123.91 0.55 33
5 06/20/2021 23:17:07 78.23, 164.58 56.11 06/20/2021 23:17:24 78.25, 164.56 56.12 2.55 17
6 06/21/2021 00:08:05 -78.24, -28.06 123.89 06/21/2021 00:08:08 -78.23, -28.01 123.91 2.04 3
7 06/21/2021 00:59:07 78.24, 139.15 56.11 06/21/2021 00:58:54 78.25, 139.18 56.12 1.50 13
8 06/21/2021 01:50:05 -78.25, -53.48 123.89 06/21/2021 01:49:39 -78.27, -53.61 123.85 3.21 26
9 06/21/2021 02:41:07 78.25, 113.73 56.11 06/21/2021 02:40:24 78.25, 113.79 56.13 1.54 43
10 06/21/2021 03:32:05 -78.27, -78.91 123.89 06/21/2021 03:31:09 -78.27, -78.99 123.85 1.95 56
11 06/21/2021 04:23:07 78.26, 88.30 56.12 06/21/2021 04:21:54 78.25, 88.41 56.13 2.62 73



Historial Predications of SNOs between NOAA-19 and NPP
